Location: Fontevrault
(47.1823°N, 0.0493°E)
Time: 11:54:12
(UTC+00:00)

GEOS 3 Rocket - Visible Passes

Search period start: 16 October 2021 00:00
Search period end: 26 October 2021 00:00
Orbit: 785 x 834 km, 115.0° (Epoch: 15 October)

Date Brightness Start Highest point End Pass type
(mag) Time Alt. Az. Time Alt. Az. Time Alt. Az.
16 Oct 4.1 04:28:47 10° NE 04:33:52 57° SE 04:38:52 10° SSW visible
17 Oct 5.0 04:05:11 10° NE 04:09:50 34° ESE 04:14:26 10° S visible
17 Oct 3.8 05:43:02 10° NNE 05:48:02 52° NW 05:52:58 10° WSW visible
18 Oct 5.8 03:42:00 10° ENE 03:45:43 20° ESE 03:49:24 10° SSE visible
18 Oct 3.5 05:19:04 10° NE 05:24:15 82° NW 05:29:21 10° SW visible
19 Oct 6.4 03:20:14 10° E 03:21:29 11° ESE 03:22:43 10° ESE visible
19 Oct 4.0 04:55:14 10° NE 05:00:21 62° SE 05:05:24 10° SSW visible
20 Oct 5.0 04:31:36 10° NE 04:36:21 37° ESE 04:41:03 10° S visible
21 Oct 5.8 04:08:19 10° ENE 04:12:14 22° ESE 04:16:07 10° SSE visible
21 Oct 3.6 05:45:33 10° NE 05:50:43 76° NW 05:55:48 10° SW visible
22 Oct 6.4 03:46:04 10° E 03:48:01 12° ESE 03:49:58 10° SE visible
22 Oct 4.0 05:21:42 10° NE 05:26:51 68° SE 05:31:54 10° SSW visible
23 Oct 4.9 04:58:00 10° NE 05:02:51 40° ESE 05:07:37 10° S visible
24 Oct 5.8 04:34:40 10° ENE 04:38:45 24° ESE 04:42:48 10° S visible
25 Oct 6.4 04:12:07 10° E 04:14:33 13° ESE 04:16:59 10° SE visible
25 Oct 3.9 05:48:09 10° NE 05:53:19 73° SE 05:58:24 10° SSW visible
